Weather History for Durango, CO

Change the Weather History Date:

Sunday, December 9, 2012

  Actual Average Record
Temperature  
Mean Temperature 20 °F 28 °F  
Max Temperature 34 °F 40 °F 62 °F (1981)
Min Temperature 6 °F 15 °F -20 °F (2013)
Degree Days  
Heating Degree Days 45 37  
Month to date heating degree days 274 325  
Since 1 July heating degree days 1723 1998  
Cooling Degree Days 0 0  
Month to date cooling degree days 0 0  
Year to date cooling degree days 477 243  
Moisture  
Dew Point 1 °F    
Average Humidity 41    
Maximum Humidity 67    
Minimum Humidity 14    
Precipitation  
Precipitation 0.00 in 0.03 in 0.57 in (1970)
Month to date precipitation T 0.30  
Year to date precipitation 6.91 15.20  
Sea Level Pressure  
Sea Level Pressure 30.01 in    
Wind  
Wind Speed 12 mph (NW)    
Max Wind Speed 30 mph    
Max Gust Speed 38 mph    
Visibility 10 miles    
Events      
T = Trace of Precipitation, MM = Missing Value Source: NWS Daily Summary

Daily Weather History Graph

Daily Weather History Graph

Search for Another Location

Airport:

Trip Planner

Search our weather history database for the weather conditions in past years. The results will help you decide how hot, cold, wet, or windy it might be!

Date:

Astronomy

Dec. 09, 2012 Rise Set
Actual Time 7:13 AM MST 4:53 PM MST
Civil Twilight 6:44 AM MST 5:22 PM MST
Nautical Twilight 6:12 AM MST 5:55 PM MST
Astronomical Twilight 5:40 AM MST 6:26 PM MST
Moon 2:53 AM MST (12/9) 1:59 PM MST (12/9)
Length of Visible Light 10h 38m
Length of Day
9h 40m
Waning Crescent, 18% of the Moon is Illuminated
Dec 9
Waning Crescent
Dec 13
New
Dec 19
First Quarter
Dec 28
Full
Jan 4
Last Quarter

Hourly Weather History & Observations

Time (MST) Temp. Windchill Dew Point Humidity Pressure Visibility Wind Dir Wind Speed Gust Speed Precip Events Conditions
12:53 AM 25.0 °F 20.7 °F 12.0 °F 58% 29.86 in 10.0 mi NE 3.5 mph - N/A   Clear
1:53 AM 19.9 °F 13.4 °F 10.9 °F 68% 29.87 in 10.0 mi ENE 4.6 mph - N/A   Clear
2:53 AM 25.0 °F 20.7 °F 12.0 °F 58% 29.83 in 10.0 mi West 3.5 mph - N/A   Clear
3:53 AM 19.0 °F - 10.0 °F 68% 29.85 in 10.0 mi Calm Calm - N/A   Clear
4:53 AM 25.0 °F 20.7 °F 12.9 °F 60% 29.84 in 10.0 mi West 3.5 mph - N/A   Clear
5:53 AM 28.9 °F 20.4 °F 14.0 °F 54% 29.84 in 10.0 mi SW 9.2 mph - N/A   Partly Cloudy
6:53 AM 28.9 °F 21.9 °F 15.1 °F 56% 29.86 in 10.0 mi WSW 6.9 mph - N/A   Partly Cloudy
7:53 AM 32.0 °F 22.1 °F 17.1 °F 54% 29.87 in 10.0 mi WSW 13.8 mph - N/A   Mostly Cloudy
8:53 AM 32.0 °F 24.8 °F 18.0 °F 56% 29.91 in 10.0 mi WNW 8.1 mph - N/A   Overcast
9:53 AM 30.9 °F 22.8 °F 15.1 °F 52% 29.98 in 10.0 mi NNW 9.2 mph - N/A   Overcast
10:53 AM 32.0 °F 22.1 °F 16.0 °F 52% 29.97 in 10.0 mi SW 13.8 mph 18.4 mph N/A   Overcast
11:53 AM 34.0 °F 25.5 °F 3.9 °F 28% 29.94 in 10.0 mi NNW 11.5 mph 17.3 mph N/A   Overcast
12:53 PM 32.0 °F 20.5 °F -5.1 °F 20% 29.94 in 10.0 mi NNW 18.4 mph 25.3 mph N/A   Overcast
1:53 PM 30.9 °F 18.4 °F -9.9 °F 17% 29.98 in 10.0 mi NNW 20.7 mph 27.6 mph N/A   Clear
2:53 PM 28.9 °F 14.5 °F -16.1 °F 14% 30.00 in 10.0 mi NNW 25.3 mph 32.2 mph N/A   Clear
3:53 PM 26.1 °F 12.3 °F -11.9 °F 19% 30.07 in 10.0 mi NW 19.6 mph 32.2 mph N/A   Clear
4:53 PM 21.9 °F 6.5 °F -11.0 °F 23% 30.10 in 10.0 mi NW 20.7 mph 36.8 mph N/A   Clear
5:53 PM 19.9 °F 2.2 °F -11.9 °F 24% 30.13 in 10.0 mi NNW 26.5 mph 34.5 mph N/A   Clear
6:53 PM 19.0 °F 3.2 °F -11.9 °F 25% 30.18 in 10.0 mi NW 19.6 mph 26.5 mph N/A   Clear
7:53 PM 19.0 °F 5.0 °F -13.0 °F 24% 30.20 in 10.0 mi NW 15.0 mph 21.9 mph N/A   Clear
8:53 PM 17.1 °F 5.0 °F -11.0 °F 28% 30.22 in 10.0 mi NW 10.4 mph - N/A   Clear
9:53 PM 15.1 °F 7.7 °F -11.0 °F 31% 30.25 in 10.0 mi North 4.6 mph - N/A   Clear
10:53 PM 10.0 °F 3.6 °F -11.0 °F 38% 30.29 in 10.0 mi NNE 3.5 mph - N/A   Clear
11:53 PM 7.0 °F -1.7 °F -11.0 °F 44% 30.28 in 10.0 mi NNE 4.6 mph - N/A   Clear